El Embrujo Airport


Codes: SKPV/PVA
Name: El Embrujo Airport
City: Providencia
Country: Colombia
Elevation: 10 ft.

Photos at El Embrujo Airport


   Photos courtesy of SpottingLog. You can add your own sightings and photos by signing up for a free trial today.



No photos found.

Weather at El Embrujo Airport


Time (UTC)DescriptionTempratureWindCloud coverageVisibilityPressureHumidity
26-Jun-2024 00:00Light Rain29°C16 mph, 46%10000m1011hPa85%
26-Jun-2024 03:00Light Rain28°C18 mph, E80%10000m1012hPa84%
26-Jun-2024 06:00Moderate Rain27°C18 mph, E100%10000m1012hPa83%
26-Jun-2024 09:00Light Rain28°C18 mph, E100%10000m1010hPa83%
26-Jun-2024 12:00Light Rain28°C20 mph, E100%10000m1011hPa86%
26-Jun-2024 15:00Overcast Clouds28°C18 mph, E100%10000m1012hPa87%
26-Jun-2024 18:00Overcast Clouds28°C16 mph, E100%10000m1011hPa82%
26-Jun-2024 21:00Overcast Clouds28°C16 mph, NE100%10000m1009hPa83%
27-Jun-2024 00:00Light Rain27°C16 mph, NE100%10000m1010hPa83%
27-Jun-2024 03:00Light Rain28°C16 mph, NE100%10000m1010hPa82%
27-Jun-2024 06:00Light Rain27°C11 mph, NE98%10000m1009hPa83%
27-Jun-2024 09:00Light Rain27°C9 mph, E87%10000m1008hPa82%
27-Jun-2024 12:00Overcast Clouds27°C11 mph, E94%10000m1009hPa82%
27-Jun-2024 15:00Light Rain28°C9 mph, E100%10000m1010hPa80%
27-Jun-2024 18:00Overcast Clouds28°C7 mph, E100%10000m1009hPa79%
27-Jun-2024 21:00Moderate Rain28°C9 mph, SE100%1905m1007hPa80%
28-Jun-2024 00:00Moderate Rain27°C18 mph, SE100%10000m1009hPa80%
28-Jun-2024 03:00Light Rain27°C20 mph, SE100%10000m1011hPa83%
28-Jun-2024 06:00Light Rain26°C20 mph, SE100%10000m1010hPa87%
28-Jun-2024 09:00Moderate Rain25°C18 mph, SE100%6878m1010hPa87%
28-Jun-2024 12:00Moderate Rain26°C18 mph, E100%10000m1011hPa85%
28-Jun-2024 15:00Light Rain27°C16 mph, E100%10000m1012hPa82%
28-Jun-2024 18:00Light Rain27°C16 mph, E100%10000m1011hPa82%
28-Jun-2024 21:00Light Rain27°C18 mph, E100%10000m1010hPa79%
29-Jun-2024 00:00Light Rain26°C22 mph, E100%10000m1012hPa86%
29-Jun-2024 03:00Light Rain26°C25 mph, E100%10000m1013hPa83%
29-Jun-2024 06:00Overcast Clouds27°C22 mph, SE100%10000m1011hPa80%
29-Jun-2024 09:00Overcast Clouds27°C16 mph, SE97%10000m1011hPa79%
29-Jun-2024 12:00Light Rain27°C11 mph, SE92%10000m1013hPa79%
29-Jun-2024 15:00Light Rain27°C11 mph, E85%9837m1014hPa80%
29-Jun-2024 18:00Light Rain27°C11 mph, E54%10000m1013hPa81%
29-Jun-2024 21:00Light Rain27°C9 mph, E83%10000m1011hPa80%
30-Jun-2024 00:00Light Rain27°C13 mph, E92%10000m1012hPa79%
30-Jun-2024 03:00Moderate Rain27°C18 mph, E100%10000m1014hPa82%
30-Jun-2024 06:00Moderate Rain27°C18 mph, E100%10000m1013hPa83%
30-Jun-2024 09:00Light Rain27°C18 mph, E100%10000m1012hPa80%
30-Jun-2024 12:00Light Rain27°C18 mph, E100%10000m1012hPa80%
30-Jun-2024 15:00Light Rain27°C18 mph, E73%10000m1013hPa79%
30-Jun-2024 18:00Light Rain27°C18 mph, E67%10000m1013hPa78%
30-Jun-2024 21:00Light Rain27°C16 mph, E92%10000m1011hPa80%